Skip Page Navigation
NASA JPL Caltech
NASA Logo - Jet Propulsion Laboratory + View the NASA Portal
+ Near-Earth Object (NEO) Program
Search JPL
JPL Home Earth Solar System Stars & Galaxies Technology
JPL Solar System Dynamics
BODIES ORBITS EPHEMERIDES TOOLS PHYSICAL DATA DISCOVERY FAQ SITE MAP
JPL Small-Body Database Browser
Search: [ help ]  
347940 Jorgezuluaga (2003 FZ128)
Classification: Main-belt Asteroid          SPK-ID: 2347940
Ephemeris | Orbit Diagram | Orbital Elements | Physical Parameters | Discovery Circumstances | Close-Approach Data ]

[ show orbit diagram ]
Orbital Elements at Epoch 2457000.5 (2014-Dec-09.0) TDB
Reference: JPL 4 (heliocentric ecliptic J2000)
 Element Value Uncertainty (1-sigma)   Units 
e .2844757000919127 1.5306e-07  
a 3.067716188320778 4.971e-08 AU
q 2.195025477964931 4.7181e-07 AU
i 18.90488292376253 2.1813e-05 deg
node 94.20015417995708 4.1157e-05 deg
peri 107.1014260421986 9.11e-05 deg
M 66.99801110973917 6.3933e-05 deg
tp 2456635.258091213146
(2013-Dec-08.75809121)
0.00034737 JED
period 1962.552096477887
5.37
4.7703e-05
1.306e-07
d
yr
n .1834346209948146 4.4587e-09 deg/d
Q 3.940406898676625 6.3852e-08 AU
  Orbit Determination Parameters
   # obs. used (total)      65  
   data-arc span      4141 days (11.34 yr)  
   first obs. used      2003-03-30  
   last obs. used      2014-07-31  
   planetary ephem.      DE431  
   SB-pert. ephem.      SB431-BIG16  
   condition code      0  
   fit RMS      .69704  
   data source      ORB  
   producer      Otto Matic  
   solution date      2014-Aug-13 18:17:50  

Additional Information
 Earth MOID = 1.27419 AU 
 T_jup = 3.089 
[ show covariance matrix ]

Ephemeris | Orbit Diagram | Orbital Elements | Physical Parameters | Discovery Circumstances | Close-Approach Data ]

Physical Parameter Table
Parameter Symbol Value Units Sigma Reference Notes
absolute magnitude H 16.1 mag n/a MPO251966  

347940 Jorgezuluaga           Discovered 2003 Mar. 30 by I. Ferrin and C. Leal at Merida.
Jorge Zuluaga (b. 1975) is a researcher, educator and popularizer of astronomy. He has made significant contributions in the field of exoplanets, has created the first pre-graduate program in astronomy in Colombia, at the University of Antioquia, and has given extensive talks and courses oriented toward the public.
NOTE: some special characters may not display properly (any characters within {} are an attempt to place the proper accent above a character)
Reference: MPC batch dated 2013-11-17Last Updated: 2013-11-20

[ show close-approach data ]
Ephemeris | Orbit Diagram | Orbital Elements | Physical Parameters | Discovery Circumstances | Close-Approach Data ]
ABOUT SSD CREDITS/AWARDS PRIVACY/COPYRIGHT GLOSSARY LINKS
FirstGov 2014-Oct-26 00:22 UT
(server date/time)  
NASA Home Page
Site Manager:   Donald K. Yeomans
Webmaster  Alan B. Chamberlin